Hourly Data Report for September 06, 2017

All times are specified in Local Standard Time (LST). Add 1 hour to adjust for Daylight Saving Time where and when it is observed.

CLYDE RIVER A
NUNAVUT

70°29'09.000" N
68°31'01.000" W
26.50 m
2400804
71090
YCY

Related Data

No related data is available for this station

Download Data

Hourly Data (September 2017)
Hourly Data Report for September 6, 2017
Temp Definition
°C
Dew Point Temp Definition
°C
Rel Hum Definition
%
Wind Dir Definition
10's deg

Wind Spd Definition
km/h
Visibility Definition
km
Stn Press Definition
kPa
Hmdx Definition


Wind Chill Definition


Weather Definition


TIME
00:00 Legend Double Dagger 0.5 -0.1 96 34 13 16.1 100.62     Rain
01:00 Legend Double Dagger 0.5 0.1 97 33 8 4.8 100.64     Snow
02:00 Legend Double Dagger 0.4 0.1 98 33 8 4.0 100.65     Snow
03:00 Legend Double Dagger 0.4 0.0 97 32 15 6.4 100.65     Snow
04:00 Legend Double Dagger 0.4 0.0 97 31 17 3.2 100.66     Snow
05:00 Legend Double Dagger 0.7 -0.3 93 31 21 16.1 100.66     Rain
06:00 Legend Double Dagger 0.8 -0.6 90 31 26 16.1 100.68     LegendNANA
07:00 Legend Double Dagger 1.1 -0.4 90 32 28 16.1 100.68     LegendNANA
08:00 Legend Double Dagger 1.3 -0.7 87 31 35 16.1 100.66     LegendNANA
09:00 Legend Double Dagger 1.6 0.2 91 31 37 16.1 100.66     LegendNANA
10:00 Legend Double Dagger 2.2 0.4 88 32 35 16.1 100.66     LegendNANA
11:00 Legend Double Dagger 2.2 0.3 87 32 34 16.1 100.67     LegendNANA
12:00 Legend Double Dagger 2.4 -0.2 83 32 37 16.1 100.66     LegendNANA
13:00 Legend Double Dagger 2.3 0.0 85 33 32 16.1 100.71     LegendNANA
14:00 Legend Double Dagger 2.0 -0.6 83 31 28 16.1 100.75     LegendNANA
15:00 Legend Double Dagger 2.5 0.3 85 32 28 16.1 100.79     Rain
16:00 Legend Double Dagger 2.5 -0.5 81 32 30 16.1 100.82     LegendNANA
17:00 Legend Double Dagger 1.7 -1.0 82 31 21 16.1 100.86     LegendNANA
18:00 Legend Double Dagger 0.9 -1.5 84 31 17 16.1 100.89     LegendNANA
19:00 Legend Double Dagger 0.9 -1.1 87 32 21 16.1 100.90     LegendNANA
20:00 Legend Double Dagger 0.9 -1.3 85 32 17 16.1 100.91     LegendNANA
21:00 Legend Double Dagger 0.8 -1.1 87 26 9 16.1 100.93     LegendNANA
22:00 Legend Double Dagger 0.6 -1.0 89 27 11 16.1 100.94     LegendNANA
23:00 Legend Double Dagger 0.4 -1.5 87 28 13 16.1 100.96     LegendNANA

Notes on Data Quality.

Legend

  • E = Estimated
  • M = Missing
  • NA = Not Available
  • ‡ = Partner data that is not subject to review by the National Climate Archives
Date modified: